Beaufort, NC

5:06 PM EST on December 15, 2017 (GMT -0500)
Smith

Weather History for KMRH - May, 2014

Change the Weather History Date:

Sunday, May 4, 2014

  Actual Average Record
Temperature  
Mean Temperature 69 °F -  
Max Temperature 77 °F 75 °F 85 °F (1991)
Min Temperature 61 °F 55 °F 41 °F (1971)
Cooling Degree Days 4    
Growing Degree Days 19 (Base 50)    
Moisture  
Dew Point 54 °F    
Average Humidity 61    
Maximum Humidity 84    
Minimum Humidity 32    
Precipitation  
Precipitation 0.00 in - - ()
Sea Level Pressure  
Sea Level Pressure 29.92 in    
Wind  
Wind Speed 10 mph (West)    
Max Wind Speed 20 mph    
Max Gust Speed 25 mph    
Visibility 10 miles    
Events      
Averages and records for this station are not official NWS values.
T = Trace of Precipitation, MM = Missing Value Source: NWS Daily Summary

Daily Weather History Graph

Daily Weather History Graph

Search for Another Location

Airport or City:

Trip Planner

Search our weather history database for the weather conditions in past years. The results will help you decide how hot, cold, wet, or windy it might be!

Date:

Astronomy

May. 04, 2014 Rise Set
Actual Time 6:13 AM EDT 7:54 PM EDT
Civil Twilight 5:46 AM EDT 8:21 PM EDT
Nautical Twilight 5:13 AM EDT 8:54 PM EDT
Astronomical Twilight 4:38 AM EDT 9:28 PM EDT
Moon 10:36 AM EDT (5/4) No Moon Set
Length of Visible Light 14h 35m
Length of Day
13h 40m
Waxing Crescent, 27% of the Moon is Illuminated
May 4
Waxing Crescent
May 6
First Quarter
May 14
Full
May 21
Last Quarter
May 28
New

Hourly Weather History & Observations

Time (EDT) Temp. Dew Point Humidity Pressure Visibility Wind Dir Wind Speed Gust Speed Precip Events Conditions
12:58 AM 64.9 °F 60.1 °F 84% 29.94 in 9.0 mi SW 8.1 mph - N/A   Clear
1:58 AM 66.0 °F 57.9 °F 75% 29.93 in 10.0 mi West 6.9 mph - N/A   Clear
2:58 AM 62.1 °F 55.9 °F 80% 29.93 in 10.0 mi Calm Calm - N/A   Clear
3:58 AM 62.1 °F 51.1 °F 67% 29.93 in 10.0 mi West 5.8 mph - N/A   Clear
4:58 AM 61.0 °F 50.0 °F 67% 29.92 in 10.0 mi West 6.9 mph - N/A   Clear
5:58 AM 62.1 °F 50.0 °F 65% 29.93 in 10.0 mi WNW 9.2 mph - N/A   Clear
6:58 AM 63.0 °F 50.0 °F 63% 29.96 in 10.0 mi NW 15.0 mph - N/A   Clear
7:58 AM 64.0 °F 51.1 °F 63% 29.97 in 10.0 mi NNW 10.4 mph - N/A   Clear
8:58 AM 69.1 °F 51.1 °F 53% 29.97 in 10.0 mi NNW 12.7 mph - N/A   Clear
9:58 AM 72.0 °F 46.0 °F 40% 29.98 in 10.0 mi North 10.4 mph - N/A   Clear
10:58 AM 73.9 °F 46.0 °F 37% 29.98 in 10.0 mi NW 9.2 mph - N/A   Clear
11:58 AM 75.9 °F 46.9 °F 36% 29.98 in 10.0 mi NNW 10.4 mph - N/A   Clear
12:58 PM 77.0 °F 45.0 °F 32% 29.96 in 10.0 mi NNW 6.9 mph - N/A   Clear
1:58 PM 75.0 °F 51.1 °F 43% 29.94 in 10.0 mi South 12.7 mph - N/A   Clear
2:58 PM 73.0 °F 57.0 °F 57% 29.91 in 10.0 mi South 15.0 mph - N/A   Clear
3:58 PM 73.0 °F 57.9 °F 59% 29.88 in 10.0 mi SSW 13.8 mph - N/A   Clear
4:58 PM 73.0 °F 55.9 °F 55% 29.88 in 10.0 mi SSW 15.0 mph - N/A   Clear
5:58 PM 72.0 °F 57.0 °F 59% 29.86 in 10.0 mi SW 19.6 mph - N/A   Clear
6:58 PM 70.0 °F 59.0 °F 68% 29.87 in 10.0 mi SW 13.8 mph - N/A   Clear
7:58 PM 69.1 °F 59.0 °F 70% 29.88 in 10.0 mi SW 13.8 mph - N/A   Clear
8:58 PM 69.1 °F 57.9 °F 68% 29.89 in 10.0 mi WSW 13.8 mph - N/A   Clear
9:58 PM 69.1 °F 59.0 °F 70% 29.89 in 10.0 mi SW 17.3 mph - N/A   Clear
10:58 PM 69.1 °F 59.0 °F 70% 29.89 in 10.0 mi SW 17.3 mph 25.3 mph N/A   Clear
11:58 PM 68.0 °F 59.0 °F 73% 29.89 in 10.0 mi SW 17.3 mph - N/A   Clear